Weather History for KD57 - January, 2014

Change the Weather History Date:

Thursday, January 2, 2014

  Actual Average (KDIK) Record (KDIK)
Temperature  
Mean Temperature -6 °F 16 °F  
Max Temperature 14 °F 26 °F 52 °F (1963)
Min Temperature -25 °F 6 °F -34 °F (1928)
Degree Days  
Heating Degree Days 70 49  
Month to date heating degree days 98  
Since 1 July heating degree days 3635  
Cooling Degree Days 0 0  
Month to date cooling degree days 0  
Year to date cooling degree days 0  
Moisture  
Dew Point -7 °F    
Average Humidity 74    
Maximum Humidity 79    
Minimum Humidity 57    
Precipitation  
Precipitation 0.00 in 0.01 in 0.05 in (1960)
Month to date precipitation 0.02  
Year to date precipitation 0.02  
Sea Level Pressure  
Sea Level Pressure 30.11 in    
Wind  
Wind Speed 5 mph (South)    
Max Wind Speed 17 mph    
Max Gust Speed 23 mph    
Visibility 9 miles    
Events      
T = Trace of Precipitation, MM = Missing Value Source: NWS Daily Summary

Daily Weather History Graph

Daily Weather History Graph

Search for Another Location

Airport or City:

Trip Planner

Search our weather history database for the weather conditions in past years. The results will help you decide how hot, cold, wet, or windy it might be!

Date:

Astronomy

Jan. 02, 2014 Rise Set
Actual Time 7:32 AM MST 4:10 PM MST
Civil Twilight 6:57 AM MST 4:45 PM MST
Nautical Twilight 6:19 AM MST 5:24 PM MST
Astronomical Twilight 5:42 AM MST 6:01 PM MST
Moon 8:08 AM MST (1/2) 6:19 PM MST (1/2)
Length of Visible Light 9h 48m
Length of Day
8h 38m
Waxing Crescent, 3% of the Moon is Illuminated
Jan 2
Waxing Crescent
Jan 7
First Quarter
Jan 15
Full
Jan 23
Last Quarter
Jan 30
New

Hourly Weather History & Observations

Time (MST) Temp. Windchill Dew Point Humidity Pressure Visibility Wind Dir Wind Speed Gust Speed Precip Events Conditions
12:15 AM -2.2 °F - -9.4 °F 71% 30.28 in 10.0 mi Calm Calm - N/A   Overcast
12:35 AM -2.2 °F - -7.6 °F 78% 30.28 in 10.0 mi Calm Calm - N/A   Overcast
12:55 AM -0.4 °F -10.4 °F -7.6 °F 72% 30.28 in 10.0 mi SSW 4.6 mph - N/A   Overcast
1:15 AM -0.4 °F - -7.6 °F 72% 30.27 in 10.0 mi Calm Calm - N/A   Overcast
1:35 AM -0.4 °F - -7.6 °F 72% 30.28 in 10.0 mi Calm Calm - N/A   Overcast
1:55 AM -0.4 °F - -7.6 °F 72% 30.29 in 10.0 mi Calm Calm - N/A   Overcast
2:15 AM -0.4 °F - -7.6 °F 72% 30.30 in 10.0 mi Calm Calm - N/A   Overcast
2:35 AM -2.2 °F -14.2 °F -7.6 °F 78% 30.30 in 10.0 mi ENE 5.8 mph - N/A   Overcast
2:55 AM -2.2 °F -10.4 °F -9.4 °F 71% 30.29 in 10.0 mi ENE 3.5 mph - N/A   Overcast
3:15 AM -2.2 °F - -9.4 °F 71% 30.30 in 10.0 mi Calm Calm - N/A   Overcast
3:35 AM -5.8 °F - -13.0 °F 71% 30.29 in 10.0 mi Calm Calm - N/A   Overcast
3:55 AM -11.2 °F - -16.6 °F 77% 30.29 in 10.0 mi Calm Calm - N/A   Scattered Clouds
4:15 AM -14.8 °F - -20.2 °F 77% 30.29 in 10.0 mi Calm Calm - N/A   Clear
4:35 AM -16.6 °F - -22.0 °F 76% 30.30 in 9.0 mi Calm Calm - N/A   Clear
4:55 AM -18.4 °F - -27.4 °F 63% 30.30 in 10.0 mi Calm Calm - N/A   Clear
5:15 AM -18.4 °F - -25.6 °F 70% 30.30 in 5.0 mi Calm Calm - N/A   Haze
5:35 AM -16.6 °F -26.8 °F -23.8 °F 70% 30.29 in 10.0 mi SE 3.5 mph - N/A   Clear
5:55 AM -18.4 °F - -25.6 °F 70% 30.30 in 8.0 mi Calm Calm - N/A   Clear
6:15 AM -20.2 °F - -27.4 °F 69% 30.30 in 10.0 mi Calm Calm - N/A   Clear
6:35 AM -22.0 °F - -29.2 °F 69% 30.29 in 10.0 mi Calm Calm - N/A   Clear
6:55 AM -23.8 °F - -32.8 °F 63% 30.29 in 10.0 mi Calm Calm - N/A   Clear
7:15 AM -23.8 °F - -32.8 °F 63% 30.28 in 6.0 mi Calm Calm - N/A   Haze
7:35 AM -25.6 °F - -36.4 °F 57% 30.28 in 10.0 mi Calm Calm - N/A   Clear
7:55 AM -23.8 °F - -32.8 °F 63% 30.28 in 10.0 mi Calm Calm - N/A   Clear
8:15 AM -16.6 °F -29.3 °F -23.8 °F 70% 30.28 in 10.0 mi SE 4.6 mph - N/A   Clear
8:35 AM -13.0 °F - -22.0 °F 64% 30.27 in 10.0 mi Calm Calm - N/A   Clear
8:55 AM -11.2 °F -26.4 °F -20.2 °F 64% 30.27 in 10.0 mi SSE 6.9 mph - N/A   Clear
9:15 AM -13.0 °F - -22.0 °F 64% 30.27 in 1.2 mi Calm Calm - N/A   Haze
9:35 AM -13.0 °F -25.1 °F -20.2 °F 70% 30.27 in 5.0 mi Variable 4.6 mph - N/A   Haze
9:55 AM -11.2 °F - -18.4 °F 70% 30.27 in 4.0 mi Calm Calm - N/A   Haze
10:15 AM -5.8 °F -24.4 °F -13.0 °F 71% 30.27 in 9.0 mi South 11.5 mph - N/A   Clear
10:35 AM -7.6 °F -23.4 °F -13.0 °F 77% 30.26 in 10.0 mi South 8.1 mph - N/A   Clear
10:55 AM -4.0 °F -14.6 °F -11.2 °F 71% 30.24 in 10.0 mi South 4.6 mph - N/A   Mostly Cloudy
11:15 AM -2.2 °F -18.9 °F -9.4 °F 71% 30.23 in 8.0 mi South 10.4 mph - N/A   Overcast
11:35 AM -0.4 °F -17.6 °F -7.6 °F 72% 30.21 in 7.0 mi South 11.5 mph - N/A   Overcast
11:55 AM -0.4 °F -19.9 °F -5.8 °F 78% 30.18 in 7.0 mi South 15.0 mph - N/A   Overcast
12:15 PM 1.4 °F -17.6 °F -4.0 °F 78% 30.17 in 9.0 mi SSE 15.0 mph - N/A   Overcast
12:35 PM 3.2 °F -15.9 °F -4.0 °F 72% 30.16 in 8.0 mi SSE 16.1 mph - N/A   Overcast
12:55 PM 3.2 °F -15.9 °F -4.0 °F 72% 30.15 in 6.0 mi SSE 16.1 mph - N/A   Haze
1:15 PM 3.2 °F -14.6 °F -2.2 °F 78% 30.13 in 9.0 mi SSE 13.8 mph - N/A   Overcast
1:35 PM 5.0 °F -10.8 °F -2.2 °F 72% 30.13 in 9.0 mi SSE 11.5 mph - N/A   Overcast
1:55 PM 6.8 °F -10.7 °F -0.4 °F 72% 30.11 in 9.0 mi SSE 15.0 mph - N/A   Overcast
2:15 PM 6.8 °F -10.7 °F -0.4 °F 72% 30.10 in 9.0 mi SSE 15.0 mph - N/A   Overcast
2:35 PM 5.0 °F -13.0 °F -0.4 °F 78% 30.10 in 10.0 mi SSE 15.0 mph - N/A   Overcast
2:55 PM 6.8 °F -10.7 °F -0.4 °F 72% 30.09 in 8.0 mi South 15.0 mph 20.7 mph N/A   Overcast
3:15 PM 6.8 °F -9.3 °F 1.4 °F 79% 30.08 in 3.0 mi South 12.7 mph - N/A   Haze
3:35 PM 6.8 °F -10.0 °F 1.4 °F 79% 30.06 in 4.0 mi South 13.8 mph - N/A   Haze
3:55 PM 8.6 °F -7.7 °F 3.2 °F 79% 30.04 in 5.0 mi South 13.8 mph - N/A   Haze
4:15 PM 8.6 °F -5.5 °F 3.2 °F 79% 30.04 in 6.0 mi South 10.4 mph 16.1 mph N/A   Haze
4:35 PM 8.6 °F -4.7 °F 3.2 °F 79% 30.02 in 7.0 mi South 9.2 mph 19.6 mph N/A   Overcast
4:55 PM 8.6 °F -7.7 °F 3.2 °F 79% 30.00 in 9.0 mi South 13.8 mph 19.6 mph N/A   Overcast
5:15 PM 10.4 °F -5.4 °F 5.0 °F 79% 29.99 in 10.0 mi SSE 13.8 mph 19.6 mph N/A   Overcast
5:35 PM 10.4 °F -2.4 °F 5.0 °F 79% 29.99 in 10.0 mi South 9.2 mph - N/A   Overcast
5:55 PM 10.4 °F -4.1 °F 5.0 °F 79% 29.98 in 10.0 mi South 11.5 mph - N/A   Overcast
6:15 PM 10.4 °F -4.8 °F 5.0 °F 79% 29.96 in 10.0 mi South 12.7 mph - N/A   Overcast
6:35 PM 12.2 °F -1.8 °F 5.0 °F 73% 29.94 in 10.0 mi South 11.5 mph - N/A   Overcast
6:55 PM 12.2 °F -1.8 °F 5.0 °F 73% 29.93 in 10.0 mi South 11.5 mph - N/A   Overcast
7:15 PM 12.2 °F -1.0 °F 6.8 °F 79% 29.92 in 10.0 mi South 10.4 mph - N/A   Overcast
7:35 PM 12.2 °F 0.7 °F 6.8 °F 79% 29.91 in 10.0 mi South 8.1 mph 13.8 mph N/A   Overcast
7:55 PM 12.2 °F -4.8 °F 6.8 °F 79% 29.88 in 10.0 mi South 17.3 mph - N/A   Overcast
8:15 PM 14.0 °F 1.2 °F 8.6 °F 79% 29.87 in 10.0 mi South 10.4 mph 16.1 mph N/A   Overcast
8:35 PM 14.0 °F -0.2 °F 8.6 °F 79% 29.85 in 10.0 mi South 12.7 mph - N/A   Scattered Clouds
8:55 PM 14.0 °F -0.8 °F 8.6 °F 79% 29.83 in 10.0 mi South 13.8 mph 21.9 mph N/A   Partly Cloudy
9:15 PM 14.0 °F 1.2 °F 8.6 °F 79% 29.82 in 10.0 mi SSW 10.4 mph 18.4 mph N/A   Scattered Clouds
9:35 PM 14.0 °F 5.1 °F 8.6 °F 79% 29.81 in 10.0 mi Variable 5.8 mph - N/A   Clear
9:55 PM 14.0 °F 2.9 °F 8.6 °F 79% 29.78 in 10.0 mi SSW 8.1 mph - N/A   Clear
10:15 PM 14.0 °F -2.5 °F 8.6 °F 79% 29.76 in 10.0 mi South 17.3 mph - N/A   Clear
10:35 PM 14.0 °F -0.8 °F 8.6 °F 79% 29.74 in 9.0 mi South 13.8 mph 23.0 mph N/A   Clear
10:55 PM 14.0 °F -1.4 °F 8.6 °F 79% 29.72 in 8.0 mi South 15.0 mph 21.9 mph N/A   Clear
11:15 PM 14.0 °F 0.5 °F 8.6 °F 79% 29.72 in 10.0 mi South 11.5 mph 17.3 mph N/A   Clear
11:35 PM 14.0 °F 2.0 °F 8.6 °F 79% 29.71 in 10.0 mi South 9.2 mph - N/A   Clear
11:55 PM 14.0 °F -1.4 °F 8.6 °F 79% 29.68 in 10.0 mi South 15.0 mph - N/A   Clear